User: anonymous   Login
Location: Caltech
(34.1382°N, 118.1253°W)
Time: 01:24:17
(UTC-07:00)
Language:

Iridium 91 - Orbit

View from above orbital plane
View from above orbital plane
View from above satellite
View from above satellite

Ground track
Ground track

The orbit data is extracted from the following two-line orbital elements,

1 27372U 02005A   15149.58038076  .00000275  00000-0  91224-4 0  9991
2 27372 086.3998 241.0347 0002440 105.9364 337.7168 14.34216263704182
Epoch (UTC): 29 May 2015 13:55:44
Eccentricity: 0.0002440
inclination: 86.3998°
perigee height: 776 km
apogee height: 779 km
right ascension of ascending node: 241.0347°
argument of perigee: 105.9364°
revolutions per day: 14.34216263
mean anomaly at epoch: 337.7168°
orbit number at epoch: 70418

The dashed part of the orbit path shows where the satellite is in the earth's shadow,  

DLR